{"data":{"norad_id":60425,"epoch":"2026-05-25T05:26:46.408128Z","epoch_age_seconds":49205,"freshness":"FRESH","line1":"1 60425U 24144A   26145.22692602  .00000953  00000+0  44294-4 0  9992","line2":"2 60425  53.1604 221.8897 0001134  73.3231 286.7894 15.30198766100127","mean_motion":15.30198766,"eccentricity":0.0001134,"inclination_deg":53.1604,"raan_deg":221.8897,"arg_perigee_deg":73.3231,"mean_anomaly_deg":286.7894,"bstar":4.4294e-5,"rev_number":10012,"period_min":94.105421595929,"perigee_km":474.44158338088,"apogee_km":475.99592446586,"semimajor_km":6853.3557539234,"source":"CELESTRAK","updated_at":"2026-05-25T13:38:19.271973Z"}}